CYGFM01 (41887 NORAD) Tracking and Keplerian Element Data

This shows tracking and keplerian element data for the satellite.

Feedback or suggestion? Click here.




ElementValue
Catalog41887
NameCYGFM01
Epoch Orbit10659
Epoch Day322.55707805
Epoch Year2018
RAAN42.7152
Inclination34.9543
Eccentricity0.0017127
Argument of Perigee296.4813
Mean Anonmoly63.4141
Mean Motion15.14072014
Decay Rate3.76E-06
L11 41887U 16078D 18322.55707805 .00000376 00000-0 21888-4 0 9990
L22 41887 34.9543 42.7152 0017127 296.4813 63.4141 15.14072014106595

Live tracking and technical data element details for CYGFM01 (NORAD 41887). CYGFM01 can be tracked NOW for your location showing map with azimuth and elevation plus other details from your city location.

Track the satellite on the map from your city or location and see movement details for azimuth, elevation, latitude, longitude, range, height, and movement on the map or in text.







IsCatalogInMostPopularTable: catalog: 41887, numindb: 119
Update: records affected: 1



GetName: 41887 CYGFM01

Hit Count: updated at: Mon, 19 Nov 2018 12:17:27 GMT